Location: State Camp
(41.2367°N, 77.7828°W)
Time: 22:01:15
(UTC-04:00)

Amateur Radio Satellites - All Passes

Search period start: 16 October 2017 21:31
Search period end: 17 October 2017 21:31
Location: State Camp, 41.2367°N, 77.7828°W

Satellite Date Start Highest point End Downlink Frequencies (MHz)
Time Altitude Azimuth
STRAND 1 16 Oct 21:38:16 21:42:52 33° 292° (WNW) 21:47:27 437.568
ZACube-1 16 Oct 21:41:38 21:45:11 22° 267° (W) 21:48:46 437.345
AAUSAT CUBESAT 2 16 Oct 21:46:49 21:47:48 11° 270° (W) 21:48:47 437.432
YUBILEINY 16 Oct 21:57:16 22:06:04 81° 265° (W) 22:14:54 435.215
O/OREOS (USA 219) 16 Oct 21:58:03 22:02:34 70° 110° (ESE) 22:07:09 437.305
DELFI C3 16 Oct 22:15:41 22:19:31 57° 260° (W) 22:23:23 145.870
BEESAT 2 16 Oct 22:23:47 22:26:59 22° 46° (NE) 22:30:07 435.950
EO-88 16 Oct 22:28:26 22:32:05 77° 259° (W) 22:35:45 145.990 - 145.960
Max Valier Satellite 16 Oct 22:28:31 22:32:11 54° 260° (W) 22:35:52 145.860
Oscar 11 16 Oct 22:28:51 22:29:58 11° 271° (W) 22:31:05 .
UNISAT 6 16 Oct 22:33:49 22:38:08 36° 97° (E) 22:42:20 437.425
TIGRISAT 16 Oct 22:49:41 22:54:13 49° 99° (E) 22:58:36 435.000
BEESAT 3 16 Oct 22:50:15 22:54:12 67° 241° (WSW) 22:58:03 437.485
FO-29 16 Oct 22:55:45 23:02:11 52° 289° (WNW) 23:09:19 435.910
AO-85 16 Oct 22:59:30 23:03:44 38° 51° (NE) 23:08:16 145.980
PRISM 16 Oct 23:20:37 23:24:37 48° 100° (E) 23:28:36 437.425
LO-87 16 Oct 23:31:32 23:35:06 77° 77° (ENE) 23:38:43 145.935 - 145.965
O/OREOS (USA 219) 16 Oct 23:40:07 23:42:30 14° 308° (NW) 23:44:54 437.305
SPROUT 16 Oct 23:44:35 23:47:28 18° 65° (ENE) 23:50:21 437.525
ESTCUBE 1 16 Oct 23:47:59 23:52:29 80° 76° (ENE) 23:56:59 437.505/2401.250
YUBILEINY 16 Oct 23:56:52 00:01:23 15° 285° (WNW) 00:05:56 435.215
VELOX 1 16 Oct 23:57:35 00:00:32 18° 65° (ENE) 00:03:30 145.980
BEESAT 2 17 Oct 00:01:04 00:04:50 38° 244° (WSW) 00:08:32 435.950
UNISAT 6 17 Oct 00:10:58 00:14:35 23° 294° (WNW) 00:18:08 437.425
EO-79 17 Oct 00:22:19 00:25:42 22° 94° (E) 00:29:03 145.935-145.965
POLYITAN 1 17 Oct 00:25:45 00:29:16 24° 95° (E) 00:32:44 437.675
TIGRISAT 17 Oct 00:27:24 00:30:28 18° 296° (WNW) 00:33:28 435.000
AO-85 17 Oct 00:40:10 00:44:02 26° 246° (WSW) 00:48:07 145.980
QB50P2 17 Oct 00:45:16 00:49:23 45° 99° (E) 00:53:26 145.880/145.840
AIST 2D 17 Oct 00:51:21 00:54:42 46° 286° (WNW) 00:58:01 435.315
NANOSAT C BR1 17 Oct 00:52:49 00:56:54 43° 99° (E) 01:00:56 145.865
PRISM 17 Oct 00:57:12 00:59:28 15° 296° (WNW) 01:01:44 437.425
DUCHIFAT 1 17 Oct 01:05:51 01:10:02 53° 100° (E) 01:14:10 145.980
RS-15 17 Oct 01:08:38 01:20:04 49° 109° (ESE) 01:31:33 29.354- 29.394
50 SAT 17 Oct 01:13:50 01:16:39 28° 71° (ENE) 01:19:30 437.505
DX 1 17 Oct 01:15:58 01:19:45 30° 69° (ENE) 01:23:32 434.975-435.025
SPROUT 17 Oct 01:18:59 01:23:01 41° 262° (W) 01:27:06 437.525
BUGSAT 1 17 Oct 01:30:18 01:33:50 25° 95° (E) 01:37:19 437.445
VELOX 1 17 Oct 01:32:29 01:36:38 43° 261° (W) 01:40:50 145.980
Oscar 19 17 Oct 01:34:29 01:37:26 15° 91° (E) 01:40:22 437.125/150
Gurwin Techsat 1B 17 Oct 01:35:34 01:36:14 10° 88° (E) 01:36:53 435.225
UKube-1 17 Oct 01:48:15 01:52:18 43° 71° (ENE) 01:56:23 .
EO-79 17 Oct 01:57:42 02:01:28 31° 290° (WNW) 02:05:12 145.935-145.965
POLYITAN 1 17 Oct 02:01:19 02:05:00 28° 291° (WNW) 02:08:39 437.675
QB50P2 17 Oct 02:22:05 02:24:47 17° 295° (WNW) 02:27:28 145.880/145.840
NANOSAT C BR1 17 Oct 02:29:30 02:32:14 17° 295° (WNW) 02:34:57 145.865
DUCHIFAT 1 17 Oct 02:43:00 02:45:14 14° 296° (WNW) 02:47:26 145.980
50 SAT 17 Oct 02:47:18 02:49:03 14° 267° (W) 02:50:48 437.505
DX 1 17 Oct 02:52:27 02:55:55 23° 265° (W) 02:59:25 434.975-435.025
M-CUBED/EXP-1 PRIME 17 Oct 02:53:40 02:57:08 74° 107° (ESE) 03:00:51 437.505
ITUPSAT 1 17 Oct 02:56:08 03:00:20 31° 68° (ENE) 03:04:33 437.325
MOZHAYETS 4 17 Oct 03:04:33 03:08:52 39° 71° (ENE) 03:13:10
BUGSAT 1 17 Oct 03:05:31 03:09:07 27° 291° (WNW) 03:12:40 437.445
Gurwin Techsat 1B 17 Oct 03:11:31 03:16:53 88° 101° (ESE) 03:22:12 435.225
Oscar 19 17 Oct 03:12:06 03:17:10 63° 287° (WNW) 03:22:12 437.125/150
BEESAT 17 Oct 03:13:57 03:18:31 47° 71° (ENE) 03:23:07 436.000
RS-15 17 Oct 03:20:22 03:32:26 57° 312° (NW) 03:44:30 29.354- 29.394
UKube-1 17 Oct 03:25:47 03:28:31 16° 267° (W) 03:31:15 .
ITAMSAT 1 17 Oct 03:37:49 03:40:30 14° 90° (E) 03:43:10 435.822/435.867
NO-84 17 Oct 03:45:07 03:47:41 15° 124° (ESE) 03:50:13 435.350 FM
AO-7 17 Oct 04:19:52 04:27:51 49° 101° (E) 04:35:48 .
ITUPSAT 1 17 Oct 04:33:57 04:38:06 29° 264° (W) 04:42:16 437.325
CUBESAT XI-V 17 Oct 04:41:53 04:46:32 88° 71° (ENE) 04:51:11 437.345
MOZHAYETS 4 17 Oct 04:42:38 04:46:07 21° 267° (W) 04:49:37
BEESAT 17 Oct 04:53:12 04:56:30 19° 267° (W) 04:59:50 436.000
Gurwin Techsat 1B 17 Oct 04:53:42 04:56:03 13° 302° (WNW) 04:58:23 435.225
KKS-1 17 Oct 05:00:13 05:04:22 42° 71° (ENE) 05:08:33 437.445
ITAMSAT 1 17 Oct 05:15:14 05:20:27 71° 287° (WNW) 05:25:40 435.822/435.867
NO-84 17 Oct 05:20:22 05:24:40 77° 318° (NW) 05:28:52 435.350 FM
RS-15 17 Oct 05:38:47 05:48:28 25° 343° (NNW) 05:58:00 29.354- 29.394
STARS 17 Oct 05:43:57 05:48:11 49° 72° (ENE) 05:52:26 437.465
DOVE 4 17 Oct 05:57:59 06:02:41 44° 99° (E) 06:07:36 437.250
AO-7 17 Oct 06:12:55 06:20:25 40° 300° (WNW) 06:27:55 .
O/OREOS (USA 219) 17 Oct 06:30:03 06:32:51 16° 53° (NE) 06:35:38 437.305
KKS-1 17 Oct 06:38:04 06:41:05 18° 267° (W) 06:44:08 437.445
LilacSat-2 17 Oct 06:46:28 06:49:52 31° 97° (E) 06:53:15 437.200
XW-2F 17 Oct 06:49:35 06:52:53 30° 97° (E) 06:56:10 145.980 - 146.000
KAITUO 1B 17 Oct 06:54:35 06:57:44 26° 96° (E) 07:00:52 145.475/437.950
CUTE-I 17 Oct 06:56:53 07:01:46 35° 97° (E) 07:06:38 437.470
XW-2D 17 Oct 06:58:38 07:02:14 43° 99° (E) 07:05:48 145.860 - 145.880
NO-84 17 Oct 06:59:32 07:02:39 19° 337° (NNW) 07:05:39 435.350 FM
XW-2B 17 Oct 07:11:53 07:15:36 62° 101° (E) 07:19:17 145.730 - 145.750
STRAND 1 17 Oct 07:14:53 07:19:41 42° 70° (ENE) 07:24:32 437.568
NUDT-PHONESAT 17 Oct 07:14:56 07:18:28 46° 99° (E) 07:21:59 437.300
STARS 17 Oct 07:22:18 07:24:47 15° 268° (W) 07:27:17 437.465
CUBEBUG 2 17 Oct 07:23:09 07:24:16 11° 88° (E) 07:25:22 437.445
XW-2C 17 Oct 07:34:54 07:38:38 63° 284° (WNW) 07:42:18 145.795 - 145.815
DOVE 4 17 Oct 07:36:21 07:40:05 22° 293° (WNW) 07:43:56 437.250
SO-50 17 Oct 07:51:31 07:55:42 40° 116° (ESE) 07:59:54 436.795
RS-15 17 Oct 07:56:58 08:06:39 26° 19° (NNE) 08:15:58 29.354- 29.394
HO-68 17 Oct 08:07:06 08:14:10 55° 101° (E) 08:21:11 435.675
UWE-3 17 Oct 08:07:26 08:10:38 19° 92° (E) 08:13:45 435.000/436.395/437.385
O/OREOS (USA 219) 17 Oct 08:08:08 08:12:41 61° 251° (WSW) 08:17:11 437.305
XW-2A 17 Oct 08:14:36 08:17:09 20° 95° (E) 08:19:39 145.665 - 145.685
LilacSat-2 17 Oct 08:21:23 08:23:54 17° 293° (WNW) 08:26:23 437.200
XW-2F 17 Oct 08:24:14 08:26:47 18° 292° (WNW) 08:29:19 145.980 - 146.000
KAITUO 1B 17 Oct 08:28:52 08:31:33 19° 292° (WNW) 08:34:13 145.475/437.950
XW-2D 17 Oct 08:34:15 08:36:01 13° 295° (WNW) 08:37:46 145.860 - 145.880
CUTE 1.7 + AOD 2 17 Oct 08:35:14 08:39:25 70° 284° (WNW) 08:43:35 437.475
CUTE-I 17 Oct 08:37:03 08:41:42 31° 294° (WNW) 08:46:21 437.470
Oscar 11 17 Oct 08:38:20 08:39:58 12° 90° (E) 08:41:36 .
NO-84 17 Oct 08:40:07 08:41:22 11° 358° (N) 08:42:35 435.350 FM
SEEDS 17 Oct 08:49:42 08:53:52 78° 282° (WNW) 08:58:01 437.485
NUDT-PHONESAT 17 Oct 08:50:32 08:51:54 12° 295° (WNW) 08:53:16 437.300
STRAND 1 17 Oct 08:55:00 08:59:01 23° 266° (W) 09:03:03 437.568
PCSat 17 Oct 08:55:46 09:00:31 32° 109° (ESE) 09:05:15 145.827
CUBEBUG 2 17 Oct 08:56:43 09:01:26 74° 284° (WNW) 09:05:58 437.445
YUBILEINY 17 Oct 09:03:59 09:10:27 24° 80° (E) 09:16:55 435.215
FO-29 17 Oct 09:08:46 09:13:54 71° 73° (ENE) 09:19:21 435.910
AO-73 17 Oct 09:09:12 09:13:20 39° 97° (E) 09:17:21 145.935
AAUSAT CUBESAT 2 17 Oct 09:25:00 09:29:06 71° 284° (WNW) 09:33:12 437.432
ZACube-1 17 Oct 09:28:45 09:33:12 76° 102° (ESE) 09:37:29 437.345
Tancredo 1 17 Oct 09:30:32 09:31:56 18° 137° (SE) 09:33:21 437.200
UNISAT 6 17 Oct 09:32:14 09:36:20 32° 69° (ENE) 09:40:30 437.425
SO-50 17 Oct 09:32:34 09:36:17 25° 314° (NW) 09:40:02 436.795
UWE-3 17 Oct 09:42:59 09:47:15 41° 289° (WNW) 09:51:24 435.000/436.395/437.385
XW-2A 17 Oct 09:47:12 09:49:45 20° 291° (WNW) 09:52:17 145.665 - 145.685
TIGRISAT 17 Oct 09:47:47 09:52:08 43° 71° (ENE) 09:56:34 435.000
DELFI C3 17 Oct 09:53:13 09:55:49 17° 93° (E) 09:58:24 145.870
HO-68 17 Oct 09:55:26 10:01:30 31° 299° (WNW) 10:07:33 435.675
Max Valier Satellite 17 Oct 09:59:45 10:01:32 13° 92° (E) 10:03:17 145.860
PRISM 17 Oct 10:09:43 10:13:21 33° 70° (ENE) 10:17:01 437.425
RS-15 17 Oct 10:10:30 10:22:23 61° 49° (NE) 10:33:35 29.354- 29.394
Oscar 11 17 Oct 10:12:14 10:16:28 58° 286° (WNW) 10:20:41 .
NO-84 17 Oct 10:17:35 10:20:09 17° 19° (NNE) 10:22:36 435.350 FM
PCSat 17 Oct 10:38:46 10:43:47 38° 307° (NW) 10:48:50 145.827
AO-73 17 Oct 10:46:09 10:49:14 19° 295° (WNW) 10:52:16 145.935
FO-29 17 Oct 10:57:35 10:59:45 12° 272° (W) 11:01:58 435.910
YUBILEINY 17 Oct 10:57:42 11:06:21 71° 280° (W) 11:15:05 435.215
Tancredo 1 17 Oct 11:02:22 11:03:47 18° 333° (NNW) 11:05:12 437.200
ZACube-1 17 Oct 11:07:36 11:08:46 11° 299° (WNW) 11:09:56 437.345
UNISAT 6 17 Oct 11:09:13 11:13:02 25° 266° (W) 11:16:55 437.425
EO-79 17 Oct 11:15:04 11:17:55 18° 65° (ENE) 11:20:47 145.935-145.965
POLYITAN 1 17 Oct 11:18:31 11:21:34 19° 66° (ENE) 11:24:38 437.675
AIST 2D 17 Oct 11:24:52 11:28:18 54° 75° (ENE) 11:31:45 435.315
TIGRISAT 17 Oct 11:25:41 11:29:00 19° 268° (W) 11:32:21 435.000
DELFI C3 17 Oct 11:27:03 11:30:40 35° 288° (WNW) 11:34:17 145.870
EO-88 17 Oct 11:30:26 11:34:00 56° 285° (WNW) 11:37:33 145.990 - 145.960
Max Valier Satellite 17 Oct 11:32:05 11:35:32 38° 287° (WNW) 11:38:56 145.860
nSIGHT-1 17 Oct 11:35:32 11:38:37 48° 139° (SE) 11:41:43 .
QB50P2 17 Oct 11:37:35 11:41:24 33° 70° (ENE) 11:45:16 145.880/145.840
ESTCUBE 1 17 Oct 11:41:31 11:44:22 16° 92° (E) 11:47:12 437.505/2401.250
NANOSAT C BR1 17 Oct 11:44:38 11:48:24 32° 70° (ENE) 11:52:12 145.865
PRISM 17 Oct 11:45:51 11:48:42 18° 266° (W) 11:51:34 437.425
NO-84 17 Oct 11:54:27 11:58:11 71° 41° (NE) 12:01:34 435.350 FM
DUCHIFAT 1 17 Oct 11:57:14 12:01:10 38° 71° (ENE) 12:05:07 145.980
ISS 17 Oct 11:59:13 12:02:27 74° 142° (SE) 12:05:42 437.550
BUGSAT 1 17 Oct 12:20:18 12:23:11 18° 66° (ENE) 12:26:06 437.445
RS-15 17 Oct 12:23:41 12:34:20 42° 253° (WSW) 12:44:30 29.354- 29.394
LO-87 17 Oct 12:31:26 12:35:05 84° 284° (WNW) 12:38:42 145.935 - 145.965
BEESAT 3 17 Oct 12:40:16 12:43:07 19° 111° (ESE) 12:46:01 437.485
EO-79 17 Oct 12:49:18 12:53:20 41° 262° (W) 12:57:24 145.935-145.965
Oscar 19 17 Oct 12:50:53 12:54:57 24° 65° (ENE) 12:59:02 437.125/150
POLYITAN 1 17 Oct 12:53:05 12:57:04 38° 262° (W) 13:01:05 437.675
Gurwin Techsat 1B 17 Oct 12:54:51 12:58:29 19° 62° (ENE) 13:02:07 435.225
YUBILEINY 17 Oct 13:00:45 13:04:57 14° 302° (WNW) 13:09:11 435.215
SPROUT 17 Oct 13:04:25 13:08:17 31° 97° (E) 13:12:06 437.525
nSIGHT-1 17 Oct 13:12:18 13:15:02 25° 337° (NNW) 13:17:46 .
QB50P2 17 Oct 13:14:01 13:17:15 21° 266° (W) 13:20:30 145.880/145.840
ESTCUBE 1 17 Oct 13:17:06 13:21:24 46° 288° (WNW) 13:25:39 437.505/2401.250
NANOSAT C BR1 17 Oct 13:20:51 13:24:08 21° 266° (W) 13:27:26 145.865
VELOX 1 17 Oct 13:22:12 13:26:13 33° 97° (E) 13:30:14 145.980
AO-7 17 Oct 13:31:05 13:35:30 16° 46° (NE) 13:39:53 .
NO-84 17 Oct 13:33:52 13:34:55 11° 239° (WSW) 13:35:57 435.350 FM
DUCHIFAT 1 17 Oct 13:34:03 13:36:57 18° 267° (W) 13:39:53 145.980
ISS 17 Oct 13:36:38 13:39:12 21° 340° (NNW) 13:41:49 437.550
M-CUBED/EXP-1 PRIME 17 Oct 13:39:40 13:43:10 85° 256° (WSW) 13:46:29 437.505
BEESAT 2 17 Oct 13:51:40 13:55:16 33° 115° (ESE) 13:58:56 435.950
BUGSAT 1 17 Oct 13:54:21 13:58:14 38° 262° (W) 14:02:11 437.445
50 SAT 17 Oct 14:04:46 14:07:33 25° 97° (E) 14:10:20 437.505
BEESAT 3 17 Oct 14:16:38 14:20:24 38° 308° (NW) 14:24:12 437.485
Oscar 19 17 Oct 14:29:05 14:33:59 43° 261° (W) 14:38:55 437.125/150
Gurwin Techsat 1B 17 Oct 14:32:43 14:37:56 59° 259° (W) 14:43:12 435.225
DX 1 17 Oct 14:39:20 14:43:39 56° 101° (E) 14:47:56 434.975-435.025
SPROUT 17 Oct 14:40:36 14:44:00 23° 293° (WNW) 14:47:21 437.525
nSIGHT-1 17 Oct 14:50:33 14:52:10 13° 357° (N) 14:53:46 .
AO-85 17 Oct 14:54:15 14:58:07 74° 305° (NW) 15:02:05 145.980
ITAMSAT 1 17 Oct 14:55:14 14:59:14 23° 64° (ENE) 15:03:16 435.822/435.867
VELOX 1 17 Oct 14:58:59 15:02:28 23° 293° (WNW) 15:05:57 145.980
UKube-1 17 Oct 15:10:37 15:14:57 80° 102° (ESE) 15:19:16 .
ISS 17 Oct 15:14:55 15:16:37 13° 1° (N) 15:18:19 437.550
BEESAT 17 Oct 15:16:18 15:17:50 11° 90° (E) 15:19:21 436.000
AO-7 17 Oct 15:18:32 15:26:42 66° 67° (ENE) 15:34:54 .
BEESAT 2 17 Oct 15:29:44 15:33:02 24° 313° (NW) 15:36:23 435.950
50 SAT 17 Oct 15:37:32 15:39:41 16° 292° (WNW) 15:41:50 437.505
Tancredo 1 17 Oct 15:39:36 15:41:11 24° 30° (NNE) 15:42:47 437.200
DX 1 17 Oct 16:17:01 16:19:21 14° 297° (WNW) 16:21:41 434.975-435.025
SO-50 17 Oct 16:22:23 16:26:41 38° 50° (NE) 16:31:02 436.795
nSIGHT-1 17 Oct 16:27:02 16:29:24 19° 17° (NNE) 16:31:46 .
ITAMSAT 1 17 Oct 16:33:26 16:38:23 45° 261° (W) 16:43:23 435.822/435.867
ITUPSAT 1 17 Oct 16:33:28 16:38:16 72° 102° (ESE) 16:43:02 437.325
MOZHAYETS 4 17 Oct 16:36:05 16:40:42 89° 273° (W) 16:45:16
CUBESAT XI-V 17 Oct 16:39:03 16:42:32 21° 93° (E) 16:46:02 437.345
UKube-1 17 Oct 16:49:38 16:50:18 10° 300° (WNW) 16:50:59 .
ISS 17 Oct 16:51:18 16:53:59 23° 21° (NNE) 16:56:40 437.550
BEESAT 17 Oct 16:51:19 16:56:06 74° 286° (WNW) 17:00:51 436.000
DOVE 4 17 Oct 17:03:57 17:07:48 38° 71° (ENE) 17:11:46 437.250
Tancredo 1 17 Oct 17:12:10 17:12:41 11° 226° (SW) 17:13:12 437.200
AO-7 17 Oct 17:13:15 17:20:00 27° 265° (W) 17:26:48 .
LilacSat-2 17 Oct 17:28:55 17:31:28 17° 67° (ENE) 17:34:00 437.200
XW-2F 17 Oct 17:31:06 17:33:25 16° 67° (ENE) 17:35:43 145.980 - 146.000
KAITUO 1B 17 Oct 17:35:32 17:37:26 14° 66° (ENE) 17:39:21 145.475/437.950
XW-2D 17 Oct 17:40:03 17:43:01 22° 69° (ENE) 17:45:58 145.860 - 145.880
PCSat 17 Oct 17:43:12 17:47:52 28° 49° (NE) 17:52:29 145.827
XW-2B 17 Oct 17:52:57 17:56:17 29° 71° (ENE) 17:59:36 145.730 - 145.750
NUDT-PHONESAT 17 Oct 17:54:12 17:57:03 21° 69° (ENE) 17:59:55 437.300
nSIGHT-1 17 Oct 18:02:51 18:06:03 84° 32° (NNE) 18:09:16 .
SO-50 17 Oct 18:03:09 18:06:58 26° 247° (WSW) 18:10:49 436.795
ITUPSAT 1 17 Oct 18:13:09 18:15:28 14° 300° (WNW) 18:17:48 437.325
XW-2C 17 Oct 18:15:31 18:19:15 57° 75° (ENE) 18:23:00 145.795 - 145.815
CUBESAT XI-V 17 Oct 18:15:47 18:20:01 37° 289° (WNW) 18:24:14 437.345
CUTE-I 17 Oct 18:18:33 18:23:43 57° 72° (ENE) 18:28:56 437.470
CUBEBUG 2 17 Oct 18:22:01 18:22:42 10° 59° (ENE) 18:23:20 437.445
KKS-1 17 Oct 18:27:01 18:31:32 85° 105° (ESE) 18:36:01 437.445
ISS 17 Oct 18:27:27 18:30:43 64° 218° (SW) 18:33:57 437.550
HO-68 17 Oct 18:35:41 18:42:15 41° 64° (ENE) 18:48:51 435.675
DOVE 4 17 Oct 18:43:00 18:45:42 17° 268° (W) 18:48:27 437.250
LilacSat-2 17 Oct 19:01:58 19:05:28 33° 263° (W) 19:08:58 437.200
XW-2F 17 Oct 19:03:42 19:07:13 36° 262° (W) 19:10:45 145.980 - 146.000
UWE-3 17 Oct 19:04:28 19:07:24 17° 64° (ENE) 19:10:21 435.000/436.395/437.385
KAITUO 1B 17 Oct 19:07:30 19:11:03 41° 261° (W) 19:14:37 145.475/437.950
STARS 17 Oct 19:09:05 19:13:32 84° 286° (WNW) 19:17:59 437.465
XW-2D 17 Oct 19:13:52 19:17:03 25° 264° (W) 19:20:15 145.860 - 145.880
YUBILEINY 17 Oct 19:15:04 19:17:28 11° 55° (NE) 19:19:52 435.215
PCSat 17 Oct 19:26:16 19:31:25 45° 248° (WSW) 19:36:33 145.827
STRAND 1 17 Oct 19:26:47 19:29:31 14° 90° (E) 19:32:14 437.568
CUTE 1.7 + AOD 2 17 Oct 19:27:13 19:31:27 80° 76° (ENE) 19:35:42 437.475
NUDT-PHONESAT 17 Oct 19:27:41 19:30:47 24° 264° (W) 19:33:53 437.300
XW-2B 17 Oct 19:27:45 19:30:29 19° 266° (W) 19:33:12 145.730 - 145.750
Oscar 11 17 Oct 19:34:41 19:35:12 10° 61° (ENE) 19:35:43 .
SEEDS 17 Oct 19:40:44 19:44:53 68° 76° (ENE) 19:49:02 437.485
nSIGHT-1 17 Oct 19:41:17 19:41:52 10° 231° (SW) 19:42:29 .
CUBEBUG 2 17 Oct 19:53:51 19:58:29 88° 70° (ENE) 20:03:14 437.445
CUTE-I 17 Oct 20:00:33 20:04:07 18° 268° (W) 20:07:43 437.470
AO-73 17 Oct 20:04:06 20:08:09 32° 70° (ENE) 20:12:12 145.935
KKS-1 17 Oct 20:06:39 20:07:22 10° 300° (WNW) 20:08:05 437.445
AAUSAT CUBESAT 2 17 Oct 20:14:27 20:18:32 72° 76° (ENE) 20:22:38 437.432
XW-2A 17 Oct 20:16:57 20:20:21 66° 259° (WSW) 20:23:46 145.665 - 145.685
FO-29 17 Oct 20:19:46 20:21:26 11° 87° (E) 20:23:09 435.910
HO-68 17 Oct 20:23:20 20:29:56 39° 262° (W) 20:36:36 435.675
ZACube-1 17 Oct 20:23:39 20:28:08 58° 74° (ENE) 20:32:39 437.345
UWE-3 17 Oct 20:38:52 20:43:23 53° 261° (W) 20:47:58 435.000/436.395/437.385
O/OREOS (USA 219) 17 Oct 20:43:05 20:45:43 15° 99° (E) 20:48:22 437.305
BEESAT 3 17 Oct 20:56:42 20:58:54 14° 41° (NE) 21:01:06 437.485
STRAND 1 17 Oct 21:04:01 21:09:09 68° 287° (WNW) 21:14:16 437.568
Oscar 11 17 Oct 21:06:20 21:10:40 80° 258° (WSW) 21:15:02 .
YUBILEINY 17 Oct 21:07:46 21:16:27 59° 78° (ENE) 21:25:07 435.215
